loading
|

CZ-4B R/B, 60951

Orbit data source: Space-Track

CZ-4B R/B, 60951 is space debris in LEO originally from a launch on Tue, 03 Sep 2024 UTC launched from the Xichang Space Center, China (XSC). Debris objects in space refer to the collection of defunct objects orbiting the Earth. Examples of debris include non-operational satellites, rocket bodies, and fragments generated from explosions, collisions, or faulty payload assembly.

Loading next visibility...
Loading greatness...
CZ-4B R/B details
Identifier
60951, 2024-156G
Orbit
LEO
Last TLE update13 hours ago
Origin
Flag of CNCNSA (CN / PRC)
ManufacturerSAST
Mission statusUnknown
MissionUnknown
Bus & MotorCZ-4 STAGE 3, Unknown motor
Mass~1,000 kg wet, ~1,000 kg dry
Launch date (UTC)
2024-09-03 (2 weeks ago)
Launch vehicleUnknown
Launch site
Xichang Space Center, China (XSC)
Object type
Payload
Rocket body
Debris
Radar Cross SectionLarge (>1 m²)

Expand to show TLE details & history

TLE from 13 hours ago
0 CZ-4B R/B
1 60951U 24156G   24258.72312064  .00087447  00000-0  14056-2 0  9993
2 60951  35.0012 263.7772 0087740 107.3361 253.6981 15.47420665  1808
Epoch: 2024-09-14T17:21Z
Definitive object data (Epoch: 2024-09-14T17:21:17.623Z)
Latitude-0°
Longitude9.27702°
Altitude440.4 km
Speed7.64 km/s
True Right ascension17h 35m 06s
True Declination0° 00' 00"
Sunlit
Object was in daylight at TLE epoch
Predictive object data (real-time)
Latitude19.85761°
Longitude36.72186°
Altitude407.643 km
Speed7.679 km/s
Apparent Right ascension16h 06m 11s
Apparent Declination-20° 48' 06"
Sunlit
Object is in full shadow
Predictive observer data (real-time)
Local Sidereal Time22:32:05
Azimuth257.57° W
Elevation-17.983°
Doppler factor1
Orbital elements
Apogee487.273 km
Perigee367.846 km
Semi-major axis6,805.697 km
Eccentricity0.008774
Inclination35.0012°
RAAN263.7772°
Arg. of periapsis107.3361°
True anomaly252.7361°
Mean anomaly253.6981°
Eccentric anomaly253.2168°
Mean motion3.86575 °/min
BSTAR0.0014056
Period93.13 mins
No data available

CZ-4B R/B Visibility forecast

Observer location: 39.9160978°, -105.1181434

CZ-4B R/B is not visible in the next 10 days
Span
Click to sort rows by Start time (UTC) header in descending order
Start Az.
Max El. time (UTC)
Max El. Az.
Max El.
End time (UTC)
End Az.